Total_Precipitation_Accumulation
0.29 0.42 0.77 0.80 0.82 0.81 0.83 0.77 0.74 0.79 0.89 1.01 0.97 0.88 0.84 0.83 0.83 0.80 0.83 0.86 0.91 0.94 0.99 1.12 1.16 1.16 1.16 1.12 0.92 0.70 0.55 0.49 0.46 0.37 0.38 0.42 0.51 0.57 0.49 0.50 0.57 0.67 0.80
0.29 0.47 0.75 0.79 0.87 0.91 0.93 0.84 0.76 0.76 0.86 0.98 1.07 1.02 1.04 1.04 1.01 0.98 0.95 0.95 0.97 0.99 1.05 1.04 0.93 0.82 0.77 0.73 0.62 0.55 0.48 0.35 0.27 0.19 0.15 0.20 0.36 0.52 0.50 0.45 0.54 0.75 0.85
0.30 0.46 0.70 0.85 0.94 0.94 0.94 0.87 0.76 0.75 0.84 0.95 1.09 1.15 1.16 1.14 1.12 1.18 1.15 1.08 1.12 1.04 1.05 0.95 0.74 0.64 0.60 0.55 0.49 0.46 0.42 0.28 0.20 0.14 0.14 0.20 0.31 0.51 0.51 0.52 0.68 0.86 0.91
0.34 0.48 0.62 0.92 1.03 0.96 0.92 0.91 0.81 0.80 0.87 0.96 1.06 1.20 1.22 1.23 1.32 1.40 1.25 1.19 1.18 1.00 0.89 0.82 0.68 0.57 0.49 0.44 0.42 0.40 0.37 0.29 0.20 0.15 0.24 0.31 0.36 0.64 0.70 0.74 0.88 0.88 0.87
0.43 0.56 0.78 1.05 1.13 1.07 1.02 1.01 0.96 0.89 0.91 1.01 1.11 1.26 1.34 1.39 1.44 1.34 1.24 1.13 1.03 0.90 0.82 0.72 0.58 0.50 0.43 0.38 0.38 0.36 0.34 0.25 0.17 0.15 0.24 0.34 0.50 0.86 0.91 0.95 0.98 0.89 0.84
0.55 0.67 0.92 1.13 1.28 1.29 1.19 1.10 1.05 1.00 0.97 0.99 1.12 1.23 1.32 1.45 1.38 1.25 1.17 1.02 0.89 0.82 0.80 0.68 0.57 0.47 0.42 0.36 0.38 0.37 0.32 0.24 0.15 0.18 0.28 0.36 0.51 0.93 0.99 1.03 1.03 1.00 0.97
0.69 0.81 0.98 1.17 1.30 1.33 1.31 1.19 1.09 1.08 1.06 1.04 1.15 1.21 1.33 1.41 1.32 1.26 1.11 0.95 0.87 0.83 0.84 0.76 0.65 0.53 0.44 0.40 0.38 0.35 0.29 0.21 0.14 0.18 0.29 0.39 0.57 0.96 1.11 1.12 1.10 1.03 1.04
0.92 1.08 1.16 1.35 1.34 1.34 1.30 1.25 1.16 1.15 1.13 1.15 1.24 1.24 1.28 1.36 1.31 1.28 1.13 1.00 0.90 0.85 0.84 0.77 0.69 0.61 0.51 0.43 0.39 0.34 0.27 0.19 0.13 0.15 0.25 0.38 0.58 0.94 1.16 1.07 1.05 0.98 0.97
1.31 1.47 1.44 1.46 1.34 1.37 1.35 1.27 1.22 1.18 1.20 1.22 1.26 1.22 1.21 1.21 1.22 1.20 1.07 0.98 0.95 0.90 0.86 0.81 0.72 0.65 0.55 0.45 0.39 0.32 0.23 0.16 0.13 0.14 0.18 0.33 0.53 0.86 1.09 1.12 1.07 1.04 1.05
1.69 1.88 1.84 1.69 1.52 1.41 1.39 1.32 1.29 1.25 1.22 1.19 1.10 0.95 0.93 1.01 1.06 1.02 0.87 0.85 0.86 0.86 0.88 0.84 0.78 0.69 0.58 0.48 0.38 0.30 0.23 0.18 0.14 0.16 0.21 0.31 0.56 0.89 1.11 1.16 1.14 1.08 1.09
2.05 2.16 2.22 2.07 1.82 1.63 1.50 1.34 1.40 1.38 1.27 1.19 1.03 0.86 0.84 0.92 0.95 0.85 0.71 0.70 0.76 0.80 0.85 0.87 0.80 0.70 0.58 0.47 0.39 0.32 0.27 0.22 0.18 0.19 0.23 0.39 0.73 1.00 1.13 1.11 1.07 1.06 1.10
2.11 2.21 2.38 2.28 2.12 1.94 1.70 1.48 1.53 1.53 1.34 1.19 0.99 0.94 0.94 0.93 0.98 0.86 0.75 0.71 0.77 0.74 0.76 0.87 0.86 0.76 0.65 0.49 0.43 0.38 0.33 0.27 0.27 0.24 0.27 0.49 0.86 1.06 1.13 1.05 1.02 1.00 1.01
2.22 2.41 2.52 2.54 2.30 2.21 2.06 1.73 1.56 1.57 1.52 1.40 1.20 1.10 1.09 1.07 1.08 1.08 0.93 0.87 0.87 0.73 0.68 0.70 0.79 0.68 0.59 0.53 0.47 0.42 0.37 0.35 0.33 0.32 0.34 0.48 0.75 1.01 1.15 1.06 1.02 1.02 1.01
2.38 2.46 2.57 2.74 2.59 2.32 2.16 2.00 1.80 1.69 1.64 1.53 1.38 1.34 1.35 1.24 1.08 1.08 1.03 0.91 0.96 0.88 0.78 0.73 0.70 0.66 0.65 0.61 0.55 0.49 0.47 0.45 0.36 0.36 0.39 0.47 0.64 0.88 1.10 1.16 1.11 1.13 1.13
2.39 2.54 2.62 2.71 2.76 2.57 2.37 2.17 1.98 1.83 1.73 1.78 1.73 1.62 1.57 1.50 1.29 1.17 1.14 1.15 1.13 1.09 1.00 0.89 0.84 0.83 0.80 0.78 0.68 0.56 0.54 0.53 0.47 0.41 0.41 0.43 0.50 0.73 0.98 1.18 1.30 1.34 1.37
2.29 2.49 2.63 2.73 2.85 2.84 2.56 2.39 2.21 1.96 1.79 1.84 1.87 1.78 1.80 1.78 1.71 1.58 1.50 1.42 1.35 1.29 1.23 1.12 1.04 1.05 1.02 0.94 0.86 0.70 0.61 0.60 0.61 0.59 0.54 0.50 0.48 0.57 0.84 1.10 1.33 1.48 1.58
2.26 2.49 2.54 2.66 2.87 2.93 2.83 2.67 2.45 2.27 1.99 1.89 1.82 1.79 1.84 1.83 1.81 1.79 1.76 1.75 1.68 1.61 1.52 1.42 1.34 1.28 1.23 1.14 1.02 0.91 0.81 0.72 0.71 0.74 0.72 0.64 0.58 0.57 0.73 1.03 1.26 1.46 1.61
2.29 2.49 2.57 2.63 2.80 2.85 2.90 2.97 2.84 2.68 2.41 2.14 1.99 1.95 1.93 1.90 1.86 1.82 1.73 1.66 1.69 1.82 1.85 1.73 1.58 1.47 1.33 1.27 1.19 1.05 0.90 0.83 0.78 0.78 0.82 0.83 0.77 0.67 0.67 0.86 1.09 1.30 1.46
2.21 2.41 2.60 2.64 2.84 2.95 2.96 3.01 3.01 2.88 2.78 2.59 2.26 2.02 2.01 2.07 2.04 1.96 1.85 1.77 1.79 1.71 1.77 1.83 1.73 1.55 1.44 1.38 1.33 1.24 1.06 0.92 0.86 0.83 0.81 0.82 0.85 0.79 0.72 0.75 0.85 1.02 1.21
2.12 2.31 2.52 2.63 2.81 3.12 3.24 3.20 3.18 2.92 2.69 2.70 2.55 2.29 2.12 2.16 2.25 2.14 1.95 1.91 1.98 1.88 1.77 1.71 1.76 1.67 1.51 1.48 1.47 1.39 1.27 1.14 1.06 0.96 0.90 0.89 0.88 0.86 0.84 0.74 0.74 0.80 0.95
2.07 2.24 2.41 2.55 2.66 2.94 3.14 3.15 3.05 2.90 2.64 2.53 2.50 2.42 2.34 2.28 2.38 2.39 2.17 2.02 2.01 1.93 1.81 1.80 1.80 1.85 1.80 1.70 1.76 1.69 1.53 1.38 1.27 1.15 1.08 1.05 1.00 0.96 0.96 0.94 0.87 0.80 0.82
1.84 2.07 2.31 2.45 2.57 2.61 2.69 2.93 3.09 3.15 2.97 2.70 2.54 2.46 2.36 2.29 2.31 2.35 2.37 2.27 2.14 2.06 1.99 1.99 2.03 2.04 2.05 2.04 2.04 2.06 1.93 1.76 1.43 1.20 1.15 1.12 1.07 1.05 1.03 1.01 0.95 0.87 0.81
1.60 1.86 2.15 2.32 2.47 2.52 2.58 2.87 3.10 3.27 3.10 2.77 2.44 2.30 2.33 2.31 2.32 2.24 2.26 2.35 2.30 2.22 2.08 2.03 2.04 2.09 2.13 2.12 2.11 2.26 2.08 1.75 1.41 1.24 1.11 1.05 1.07 1.09 1.07 1.10 1.12 1.05 0.96
1.42 1.62 1.81 2.03 2.20 2.41 2.53 2.63 2.70 2.83 2.85 2.58 2.44 2.34 2.38 2.42 2.39 2.33 2.28 2.30 2.29 2.23 2.10 2.06 2.01 2.01 2.10 2.12 2.10 2.04 1.94 1.64 1.49 1.37 1.20 1.09 1.07 1.10 1.15 1.17 1.19 1.22 1.20
1.28 1.54 1.70 1.79 1.99 2.21 2.37 2.44 2.59 2.61 2.65 2.71 2.66 2.55 2.46 2.43 2.38 2.32 2.28 2.28 2.21 2.14 2.11 2.16 2.11 2.08 2.10 2.09 2.03 1.97 1.99 1.79 1.56 1.49 1.34 1.18 1.17 1.13 1.19 1.29 1.27 1.26 1.27
1.22 1.39 1.61 1.62 1.72 1.90 2.16 2.38 2.44 2.41 2.46 2.50 2.49 2.44 2.42 2.42 2.38 2.28 2.18 2.14 2.12 2.11 2.11 2.16 2.22 2.17 2.16 2.18 2.11 2.00 2.02 2.02 1.81 1.71 1.61 1.36 1.32 1.25 1.18 1.25 1.30 1.29 1.27